Time,TemperatureF,DewpointF,PressureIn,WindDirection,WindDirectionDegrees,WindSpeedMPH,WindSpeedGustMPH,Humidity,HourlyPrecipIn,Conditions,Clouds,dailyrainin,SolarRadiationWatts/m^2,SoftwareType,DateUTC
2013-02-14 00:02:00,45.0,35.0,-100.00,SE,133,3.0,7.0,67,0.00,,,0.00,0.000000,,2013-02-14 06:02:00,
2013-02-14 00:11:00,45.0,35.0,-100.00,SE,133,3.0,7.0,67,0.00,,,0.00,0.000000,,2013-02-14 06:11:00,
2013-02-14 00:21:00,45.0,35.0,-100.00,SE,133,3.0,7.0,67,0.00,,,0.00,0.000000,,2013-02-14 06:21:00,
2013-02-14 00:31:00,45.0,35.0,-100.00,SE,133,3.0,7.0,67,0.00,,,0.00,0.000000,,2013-02-14 06:31:00,
2013-02-14 01:01:00,42.0,34.0,-100.00,SSW,195,7.0,9.0,73,0.00,,,0.00,0.000000,,2013-02-14 07:01:00,
2013-02-14 01:11:00,42.0,34.0,-100.00,SSW,195,7.0,9.0,73,0.00,,,0.00,0.000000,,2013-02-14 07:11:00,
2013-02-14 01:21:00,42.0,34.0,-100.00,SSW,195,7.0,9.0,73,0.00,,,0.00,0.000000,,2013-02-14 07:21:00,
2013-02-14 01:31:00,42.0,34.0,-100.00,SSW,195,7.0,9.0,73,0.00,,,0.00,0.000000,,2013-02-14 07:31:00,
2013-02-14 02:01:00,43.0,35.0,-100.00,South,179,6.0,9.0,73,0.00,,,0.00,0.000000,,2013-02-14 08:01:00,
2013-02-14 02:11:00,43.0,35.0,-100.00,South,179,6.0,9.0,73,0.00,,,0.00,0.000000,,2013-02-14 08:11:00,
2013-02-14 02:21:00,43.0,35.0,-100.00,South,179,6.0,9.0,73,0.00,,,0.00,0.000000,,2013-02-14 08:21:00,
2013-02-14 02:32:00,43.0,35.0,-100.00,South,179,6.0,9.0,73,0.00,,,0.00,0.000000,,2013-02-14 08:32:00,
2013-02-14 03:02:00,42.0,34.0,-100.00,South,185,7.0,9.0,74,0.00,,,0.00,0.000000,,2013-02-14 09:02:00,
2013-02-14 03:11:00,42.0,34.0,-100.00,South,185,7.0,9.0,74,0.00,,,0.00,0.000000,,2013-02-14 09:11:00,
2013-02-14 03:21:00,42.0,34.0,-100.00,South,185,7.0,9.0,74,0.00,,,0.00,0.000000,,2013-02-14 09:21:00,
2013-02-14 03:31:00,42.0,34.0,-100.00,South,185,7.0,9.0,74,0.00,,,0.00,0.000000,,2013-02-14 09:31:00,
2013-02-14 04:02:00,41.0,34.0,-100.00,South,187,7.0,8.0,75,0.00,,,0.00,0.000000,,2013-02-14 10:02:00,
2013-02-14 04:11:00,41.0,34.0,-100.00,South,187,7.0,8.0,75,0.00,,,0.00,0.000000,,2013-02-14 10:11:00,
2013-02-14 04:21:00,41.0,34.0,-100.00,South,187,7.0,8.0,75,0.00,,,0.00,0.000000,,2013-02-14 10:21:00,
2013-02-14 04:31:00,41.0,34.0,-100.00,South,187,7.0,8.0,75,0.00,,,0.00,0.000000,,2013-02-14 10:31:00,
2013-02-14 05:02:00,40.0,33.0,-100.00,SSW,211,7.0,11.0,77,0.00,,,0.00,0.000000,,2013-02-14 11:02:00,
2013-02-14 05:11:00,40.0,33.0,-100.00,SSW,211,7.0,11.0,77,0.00,,,0.00,0.000000,,2013-02-14 11:11:00,
2013-02-14 05:21:00,40.0,33.0,-100.00,SSW,211,7.0,11.0,77,0.00,,,0.00,0.000000,,2013-02-14 11:21:00,
2013-02-14 05:32:00,40.0,33.0,-100.00,SSW,211,7.0,11.0,77,0.00,,,0.00,0.000000,,2013-02-14 11:32:00,
2013-02-14 05:52:00,41.0,34.0,-100.00,SSW,213,7.0,11.0,76,0.00,,,0.00,0.000000,,2013-02-14 11:52:00,
2013-02-14 06:02:00,41.0,34.0,-100.00,SSW,213,7.0,11.0,76,0.00,,,0.00,0.000000,,2013-02-14 12:02:00,
2013-02-14 06:12:00,41.0,34.0,-100.00,SSW,213,7.0,11.0,76,0.00,,,0.00,0.000000,,2013-02-14 12:12:00,
2013-02-14 06:22:00,41.0,34.0,-100.00,SSW,213,7.0,11.0,76,0.00,,,0.00,0.000000,,2013-02-14 12:22:00,
2013-02-14 06:32:00,41.0,34.0,-100.00,SSW,213,7.0,11.0,76,0.00,,,0.00,0.000000,,2013-02-14 12:32:00,
2013-02-14 07:02:00,41.0,33.0,-100.00,SW,219,7.0,9.0,74,0.00,,,0.00,0.000000,,2013-02-14 13:02:00,
2013-02-14 07:11:00,41.0,33.0,-100.00,SW,219,7.0,9.0,74,0.00,,,0.00,0.000000,,2013-02-14 13:11:00,
2013-02-14 07:21:00,41.0,33.0,-100.00,SW,219,7.0,9.0,74,0.00,,,0.00,0.000000,,2013-02-14 13:21:00,
2013-02-14 07:31:00,41.0,33.0,-100.00,SW,219,7.0,9.0,74,0.00,,,0.00,0.000000,,2013-02-14 13:31:00,
2013-02-14 08:01:00,42.0,34.0,-100.00,SW,222,7.0,10.0,72,0.00,,,0.00,7.000000,,2013-02-14 14:01:00,
2013-02-14 08:11:00,42.0,34.0,-100.00,SW,222,7.0,10.0,72,0.00,,,0.00,7.000000,,2013-02-14 14:11:00,
2013-02-14 08:21:00,42.0,34.0,-100.00,SW,222,7.0,10.0,72,0.00,,,0.00,7.000000,,2013-02-14 14:21:00,
2013-02-14 08:31:00,42.0,34.0,-100.00,SW,222,7.0,10.0,72,0.00,,,0.00,7.000000,,2013-02-14 14:31:00,
2013-02-14 08:52:00,47.0,35.0,-100.00,WSW,239,7.0,9.0,63,0.00,,,0.00,140.000000,,2013-02-14 14:52:00,
2013-02-14 09:02:00,47.0,35.0,-100.00,WSW,239,7.0,9.0,63,0.00,,,0.00,140.000000,,2013-02-14 15:02:00,
2013-02-14 09:32:00,47.0,35.0,-100.00,WSW,239,7.0,9.0,63,0.00,,,0.00,140.000000,,2013-02-14 15:32:00,
2013-02-14 10:02:00,53.0,36.0,-100.00,SW,216,8.0,10.0,53,0.00,,,0.00,338.000000,,2013-02-14 16:02:00,
2013-02-14 10:11:00,53.0,36.0,-100.00,SW,216,8.0,10.0,53,0.00,,,0.00,338.000000,,2013-02-14 16:11:00,
2013-02-14 10:21:00,53.0,36.0,-100.00,SW,216,8.0,10.0,53,0.00,,,0.00,338.000000,,2013-02-14 16:21:00,
2013-02-14 10:32:00,53.0,36.0,-100.00,SW,216,8.0,10.0,53,0.00,,,0.00,338.000000,,2013-02-14 16:32:00,
2013-02-14 10:52:00,57.0,35.0,-100.00,SW,214,10.0,15.0,43,0.00,,,0.00,516.000000,,2013-02-14 16:52:00,
2013-02-14 11:01:00,57.0,35.0,-100.00,SW,214,10.0,15.0,43,0.00,,,0.00,516.000000,,2013-02-14 17:01:00,
2013-02-14 11:11:00,57.0,35.0,-100.00,SW,214,10.0,15.0,43,0.00,,,0.00,516.000000,,2013-02-14 17:11:00,
2013-02-14 11:21:00,57.0,35.0,-100.00,SW,214,10.0,15.0,43,0.00,,,0.00,516.000000,,2013-02-14 17:21:00,
2013-02-14 11:31:00,57.0,35.0,-100.00,SW,214,10.0,15.0,43,0.00,,,0.00,516.000000,,2013-02-14 17:31:00,
2013-02-14 12:01:00,60.0,36.0,-100.00,SSW,194,11.0,14.0,40,0.00,,,0.00,652.000000,,2013-02-14 18:01:00,
2013-02-14 12:11:00,60.0,36.0,-100.00,SSW,194,11.0,14.0,40,0.00,,,0.00,652.000000,,2013-02-14 18:11:00,
2013-02-14 12:23:00,60.0,36.0,-100.00,SSW,194,11.0,14.0,40,0.00,,,0.00,652.000000,,2013-02-14 18:23:00,
2013-02-14 12:32:00,60.0,36.0,-100.00,SSW,194,11.0,14.0,40,0.00,,,0.00,652.000000,,2013-02-14 18:32:00,
2013-02-14 13:02:00,65.0,34.0,-100.00,SSW,204,7.0,15.0,32,0.00,,,0.00,725.000000,,2013-02-14 19:02:00,
2013-02-14 13:11:00,65.0,34.0,-100.00,SSW,204,7.0,15.0,32,0.00,,,0.00,725.000000,,2013-02-14 19:11:00,
2013-02-14 13:21:00,65.0,34.0,-100.00,SSW,204,7.0,15.0,32,0.00,,,0.00,725.000000,,2013-02-14 19:21:00,
2013-02-14 13:31:00,65.0,34.0,-100.00,SSW,204,7.0,15.0,32,0.00,,,0.00,725.000000,,2013-02-14 19:31:00,
2013-02-14 14:01:00,67.0,31.0,-100.00,SW,228,8.0,17.0,26,0.00,,,0.00,736.000000,,2013-02-14 20:01:00,
2013-02-14 14:11:00,67.0,31.0,-100.00,SW,228,8.0,17.0,26,0.00,,,0.00,736.000000,,2013-02-14 20:11:00,
2013-02-14 14:21:00,67.0,31.0,-100.00,SW,228,8.0,17.0,26,0.00,,,0.00,736.000000,,2013-02-14 20:21:00,
2013-02-14 14:31:00,67.0,31.0,-100.00,SW,228,8.0,17.0,26,0.00,,,0.00,736.000000,,2013-02-14 20:31:00,
2013-02-14 14:52:00,69.0,31.0,-100.00,SSE,153,9.0,17.0,24,0.00,,,0.00,677.000000,,2013-02-14 20:52:00,
2013-02-14 15:02:00,69.0,31.0,-100.00,SSE,153,9.0,17.0,24,0.00,,,0.00,677.000000,,2013-02-14 21:02:00,
2013-02-14 15:11:00,69.0,31.0,-100.00,SSE,153,9.0,17.0,24,0.00,,,0.00,677.000000,,2013-02-14 21:11:00,
2013-02-14 15:21:00,69.0,31.0,-100.00,SSE,153,9.0,17.0,24,0.00,,,0.00,677.000000,,2013-02-14 21:21:00,
2013-02-14 15:31:00,69.0,31.0,-100.00,SSE,153,9.0,17.0,24,0.00,,,0.00,677.000000,,2013-02-14 21:31:00,
2013-02-14 16:02:00,70.0,28.0,-100.00,SSW,203,9.0,19.0,21,0.00,,,0.00,565.000000,,2013-02-14 22:02:00,
2013-02-14 16:11:00,70.0,28.0,-100.00,SSW,203,9.0,19.0,21,0.00,,,0.00,565.000000,,2013-02-14 22:11:00,
2013-02-14 16:21:00,70.0,28.0,-100.00,SSW,203,9.0,19.0,21,0.00,,,0.00,565.000000,,2013-02-14 22:21:00,
2013-02-14 16:31:00,70.0,28.0,-100.00,SSW,203,9.0,19.0,21,0.00,,,0.00,565.000000,,2013-02-14 22:31:00,
2013-02-14 17:01:00,69.0,27.0,-100.00,South,171,9.0,19.0,21,0.00,,,0.00,402.000000,,2013-02-14 23:01:00,
2013-02-14 17:11:00,69.0,27.0,-100.00,South,171,9.0,19.0,21,0.00,,,0.00,402.000000,,2013-02-14 23:11:00,
2013-02-14 17:21:00,69.0,27.0,-100.00,South,171,9.0,19.0,21,0.00,,,0.00,402.000000,,2013-02-14 23:21:00,
2013-02-14 17:32:00,69.0,27.0,-100.00,South,171,9.0,19.0,21,0.00,,,0.00,402.000000,,2013-02-14 23:32:00,
2013-02-14 18:01:00,67.0,28.0,-100.00,South,187,8.0,15.0,23,0.00,,,0.00,213.000000,,2013-02-15 00:01:00,
2013-02-14 18:11:00,67.0,28.0,-100.00,South,187,8.0,15.0,23,0.00,,,0.00,213.000000,,2013-02-15 00:11:00,
2013-02-14 18:22:00,67.0,28.0,-100.00,South,187,8.0,15.0,23,0.00,,,0.00,213.000000,,2013-02-15 00:22:00,
2013-02-14 18:32:00,67.0,28.0,-100.00,South,187,8.0,15.0,23,0.00,,,0.00,213.000000,,2013-02-15 00:32:00,
2013-02-14 19:02:00,62.0,30.0,-100.00,SSE,168,6.0,12.0,30,0.00,,,0.00,38.000000,,2013-02-15 01:02:00,
2013-02-14 19:11:00,62.0,30.0,-100.00,SSE,168,6.0,12.0,30,0.00,,,0.00,38.000000,,2013-02-15 01:11:00,
2013-02-14 19:21:00,62.0,30.0,-100.00,SSE,168,6.0,12.0,30,0.00,,,0.00,38.000000,,2013-02-15 01:21:00,
2013-02-14 19:31:00,62.0,30.0,-100.00,SSE,168,6.0,12.0,30,0.00,,,0.00,38.000000,,2013-02-15 01:31:00,
2013-02-14 20:01:00,59.0,31.0,-100.00,SSE,148,5.0,8.0,35,0.00,,,0.00,0.000000,,2013-02-15 02:01:00,
2013-02-14 20:11:00,59.0,31.0,-100.00,SSE,148,5.0,8.0,35,0.00,,,0.00,0.000000,,2013-02-15 02:11:00,
2013-02-14 20:21:00,59.0,31.0,-100.00,SSE,148,5.0,8.0,35,0.00,,,0.00,0.000000,,2013-02-15 02:21:00,
2013-02-14 20:31:00,59.0,31.0,-100.00,SSE,148,5.0,8.0,35,0.00,,,0.00,0.000000,,2013-02-15 02:31:00,
2013-02-14 21:02:00,57.0,33.0,-100.00,SSE,147,6.0,9.0,40,0.00,,,0.00,0.000000,,2013-02-15 03:02:00,
2013-02-14 21:11:00,57.0,33.0,-100.00,SSE,147,6.0,9.0,40,0.00,,,0.00,0.000000,,2013-02-15 03:11:00,
2013-02-14 21:22:00,57.0,33.0,-100.00,SSE,147,6.0,9.0,40,0.00,,,0.00,0.000000,,2013-02-15 03:22:00,
2013-02-14 21:32:00,57.0,33.0,-100.00,SSE,147,6.0,9.0,40,0.00,,,0.00,0.000000,,2013-02-15 03:32:00,
2013-02-14 22:01:00,55.0,33.0,-100.00,SSE,150,7.0,10.0,44,0.00,,,0.00,0.000000,,2013-02-15 04:01:00,
2013-02-14 22:11:00,55.0,33.0,-100.00,SSE,150,7.0,10.0,44,0.00,,,0.00,0.000000,,2013-02-15 04:11:00,
2013-02-14 22:21:00,55.0,33.0,-100.00,SSE,150,7.0,10.0,44,0.00,,,0.00,0.000000,,2013-02-15 04:21:00,
2013-02-14 22:32:00,55.0,33.0,-100.00,SSE,150,7.0,10.0,44,0.00,,,0.00,0.000000,,2013-02-15 04:32:00,
2013-02-14 23:02:00,53.0,34.0,-100.00,South,172,6.0,9.0,48,0.00,,,-99.99,0.000000,,2013-02-15 05:02:00,
2013-02-14 23:12:00,53.0,34.0,-100.00,South,172,6.0,9.0,48,0.00,,,-99.99,0.000000,,2013-02-15 05:12:00,
2013-02-14 23:22:00,53.0,34.0,-100.00,South,172,6.0,9.0,48,0.00,,,-99.99,0.000000,,2013-02-15 05:22:00,
2013-02-14 23:32:00,53.0,34.0,-100.00,South,172,6.0,9.0,48,0.00,,,-99.99,0.000000,,2013-02-15 05:32:00,